STARLINK-5936 (56011 NORAD) Tracking and Keplerian Element Data

This shows tracking and keplerian element data for the satellite.

Feedback or suggestion? Click here.




ElementValue
Catalog56011
NameSTARLINK-5936
Epoch Orbit717
Epoch Day127.00001157
Epoch Year2023
RAAN293.2041
Inclination42.9995
Eccentricity0.0001458
Argument of Perigee279.5303
Mean Anonmoly298.8331
Mean Motion15.54914819
Decay Rate-0.00921252
L11 56011U 23042AB 23127.00001157 -.00921252 00000+0 -14801-1 0 9990
L22 56011 42.9995 293.2041 0001458 279.5303 298.8331 15.54914819 7177



Live tracking and technical data element details for STARLINK-5936 (NORAD 56011). STARLINK-5936 can be tracked NOW for your location showing map with azimuth and elevation plus other details from your city location.







IsCatalogInMostPopularTable: catalog: 56011, numindb: -1

Insert: records affected: 1


GetName: 56011 STARLINK-5936

Hit Count: inserted at: Sat, 03 Jun 2023 19:07:49 GMT